Change the Weather History Date:

Saturday, November 10, 2012

  Actual Average Record
Temperature  
Mean Temperature 42 °F -  
Max Temperature 50 °F 41 °F - ()
Min Temperature 34 °F 32 °F - ()
Degree Days  
Heating Degree Days 23    
Moisture  
Dew Point 36 °F    
Average Humidity 80    
Maximum Humidity 93    
Minimum Humidity 59    
Precipitation  
Precipitation 0.00 in 0.04 in - ()
Sea Level Pressure  
Sea Level Pressure 29.96 in    
Wind  
Wind Speed 10 mph ()    
Max Wind Speed 22 mph    
Max Gust Speed -    
Visibility 5.7 miles    
Events      
T = Trace of Precipitation, MM = Missing Value Source: Averaged Metar Reports

Daily Weather History Graph

Daily Weather History Graph

Search for Another Location

Airport or City:

Trip Planner

Search our weather history database for the weather conditions in past years. The results will help you decide how hot, cold, wet, or windy it might be!

Date:

Astronomy

Nov. 10, 2012 Rise Set
Actual Time 6:55 AM CET 4:18 PM CET
Civil Twilight 6:21 AM CET 4:52 PM CET
Nautical Twilight 5:43 AM CET 5:30 PM CET
Astronomical Twilight 5:05 AM CET 6:07 PM CET
Moon 2:21 AM CET (11/10) 2:11 PM CET (11/10)
Length of Visible Light 10h 30m
Length of Day
9h 22m
Waning Crescent, 16% of the Moon is Illuminated
Nov 10
Waning Crescent
Nov 13
New
Nov 20
First Quarter
Nov 28
Full
Dec 6
Last Quarter

Hourly Weather History & Observations

Time (CET) Temp. Windchill Dew Point Humidity Pressure Visibility Wind Dir Wind Speed Gust Speed Precip Events Conditions
12:00 AM 37.4 °F 31.4 °F 35.6 °F 93% 30.09 in - ENE 8.1 mph - N/A   Clear
12:30 AM 35.6 °F 30.7 °F 33.8 °F 93% 30.06 in - East 5.8 mph - N/A   Clear
1:00 AM 36 °F - 33 °F 84% 30.11 in 6 mi ENE 6.7 mph - -  
1:00 AM 35.6 °F 29.9 °F 33.8 °F 93% 30.06 in - East 6.9 mph - N/A   Clear
1:30 AM 37.4 °F 32.8 °F 33.8 °F 87% 30.06 in - ENE 5.8 mph - N/A   Clear
2:00 AM 37.4 °F 32.8 °F 33.8 °F 87% 30.04 in - East 5.8 mph - N/A   Clear
2:30 AM 37.4 °F 32.8 °F 33.8 °F 87% 30.04 in - ENE 5.8 mph - N/A   Clear
3:00 AM 35.6 °F 31.7 °F 33.8 °F 93% 30.06 in - East 4.6 mph - N/A   Clear
3:30 AM 35.6 °F 29.9 °F 33.8 °F 93% 30.04 in 5.0 mi East 6.9 mph - N/A   Unknown
4:00 AM 35.6 °F 28.6 °F 33.8 °F 93% 30.04 in 5.0 mi East 9.2 mph - N/A   Unknown
4:30 AM 37.4 °F 31.4 °F 33.8 °F 87% 30.04 in 5.0 mi East 8.1 mph - N/A   Unknown
5:00 AM 37.4 °F 30.8 °F 35.6 °F 93% 30.04 in 5.0 mi ESE 9.2 mph - N/A   Mostly Cloudy
5:30 AM 39.2 °F 32.0 °F 35.6 °F 87% 30.04 in 5.0 mi ESE 11.5 mph - N/A   Scattered Clouds
6:00 AM 39.2 °F 33.6 °F 35.6 °F 87% 30.01 in 5.0 mi ESE 8.1 mph - N/A   Unknown
6:30 AM 37.4 °F 30.8 °F 35.6 °F 93% 30.01 in 4.3 mi East 9.2 mph - N/A   Scattered Clouds
7:00 AM 38 °F - 35 °F 83% 30.07 in 4 mi East 8.9 mph - -   Mist
7:00 AM 37.4 °F 32.1 °F 33.8 °F 87% 30.04 in 4.3 mi ESE 6.9 mph - N/A   Scattered Clouds
7:30 AM 39.2 °F 33.6 °F 35.6 °F 87% 30.04 in 4.3 mi ESE 8.1 mph - N/A   Partly Cloudy
8:00 AM 41.0 °F 36.4 °F 35.6 °F 81% 30.04 in 5.0 mi East 6.9 mph - N/A   Partly Cloudy
8:30 AM 41.0 °F 34.3 °F 37.4 °F 87% 30.01 in 5.6 mi East 11.5 mph - N/A   Partly Cloudy
9:00 AM 42.8 °F 35.1 °F 37.4 °F 81% 30.01 in 5.6 mi ESE 16.1 mph - N/A   Partly Cloudy
9:30 AM 44.6 °F 37.8 °F 37.4 °F 76% 30.01 in 6.2 mi ESE 15.0 mph - N/A   Partly Cloudy
10:00 AM 44.6 °F 37.2 °F 37.4 °F 76% 30.01 in 6.2 mi ESE 17.3 mph - N/A   Partly Cloudy
10:30 AM 44.6 °F 37.2 °F 37.4 °F 76% 30.01 in 6.2 mi SE 17.3 mph - N/A   Scattered Clouds
11:00 AM 46.4 °F 39.8 °F 39.2 °F 76% 29.98 in 6.2 mi ESE 16.1 mph - N/A   Scattered Clouds
11:30 AM 48.2 °F - 37.4 °F 66% 29.98 in 6.2 mi SE 13.8 mph - N/A   Scattered Clouds
12:00 PM 48.2 °F - 37.4 °F 66% 29.95 in 6.2 mi SE 18.4 mph - N/A   Scattered Clouds
12:30 PM 48.2 °F - 37.4 °F 66% 29.95 in 6.2 mi SE 19.6 mph - N/A   Scattered Clouds
1:00 PM 49 °F - 39 °F 59% 29.95 in 9 mi SE 17.9 mph - -   Partly Cloudy
1:00 PM 50.0 °F - 39.2 °F 66% 29.92 in 6.2 mi SE 18.4 mph - N/A   Partly Cloudy
1:30 PM 50.0 °F - 39.2 °F 66% 29.89 in 6.2 mi SE 19.6 mph - N/A   Partly Cloudy
2:00 PM 50.0 °F - 37.4 °F 62% 29.89 in 6.2 mi SE 21.9 mph - N/A   Partly Cloudy
2:30 PM 48.2 °F - 37.4 °F 66% 29.89 in 6.2 mi SE 20.7 mph - N/A   Partly Cloudy
3:00 PM 48.2 °F - 37.4 °F 66% 29.89 in 6.2 mi SE 17.3 mph - N/A   Partly Cloudy
3:30 PM 48.2 °F - 37.4 °F 66% 29.86 in 6.2 mi ESE 13.8 mph - N/A   Partly Cloudy
4:00 PM 48.2 °F - 37.4 °F 66% 29.86 in 6.2 mi SE 11.5 mph - N/A   Partly Cloudy
4:30 PM 46.4 °F 40.7 °F 37.4 °F 71% 29.86 in 6.2 mi ESE 12.7 mph - N/A   Partly Cloudy
5:00 PM 44.6 °F 38.4 °F 37.4 °F 76% 29.86 in 6.2 mi SE 12.7 mph - N/A   Partly Cloudy
5:30 PM 44.6 °F 38.1 °F 37.4 °F 76% 29.86 in 6.2 mi ESE 13.8 mph - N/A   Partly Cloudy
6:00 PM 44.6 °F 38.1 °F 37.4 °F 76% 29.86 in 6.2 mi ESE 13.8 mph - N/A   Partly Cloudy
6:30 PM 42.8 °F 35.8 °F 37.4 °F 81% 29.86 in 6.2 mi ESE 13.8 mph - N/A   Partly Cloudy
7:00 PM 43 °F - 37 °F 72% 29.91 in 6 mi ESE 13.4 mph - -   Scattered Clouds
7:00 PM 42.8 °F 35.8 °F 37.4 °F 81% 29.86 in 6.2 mi ESE 13.8 mph - N/A   Partly Cloudy
7:30 PM 42.8 °F 36.6 °F 37.4 °F 81% 29.86 in 6.2 mi ESE 11.5 mph - N/A   Partly Cloudy
8:00 PM 42.8 °F 36.2 °F 37.4 °F 81% 29.86 in 5.6 mi ESE 12.7 mph - N/A   Unknown
8:30 PM 42.8 °F 35.8 °F 37.4 °F 81% 29.89 in 5.6 mi ESE 13.8 mph - N/A   Unknown
9:00 PM 42.8 °F 35.8 °F 37.4 °F 81% 29.89 in 5.6 mi SE 13.8 mph - N/A   Unknown
9:30 PM 42.8 °F 35.8 °F 37.4 °F 81% 29.89 in 5.6 mi SE 13.8 mph - N/A   Unknown
10:00 PM 42.8 °F 35.8 °F 37.4 °F 81% 29.89 in 5.0 mi SE 13.8 mph - N/A   Unknown
10:30 PM 42.8 °F 35.4 °F 37.4 °F 81% 29.89 in 5.0 mi ESE 15.0 mph - N/A   Unknown
11:00 PM 42.8 °F 36.2 °F 37.4 °F 81% 29.89 in 5.0 mi SE 12.7 mph - N/A   Unknown
11:13 PM 42.8 °F 35.8 °F 37.4 °F 81% 29.89 in 5.0 mi SE 13.8 mph - N/A   Mostly Cloudy
11:30 PM 42.8 °F 35.8 °F 37.4 °F 81% 29.89 in 5.0 mi ESE 13.8 mph - N/A   Mostly Cloudy